This is the latest recevied weather packets stored in our database for station/object KB3AWQ. If no packets are shown the sender has not sent any weather packets the latest 10 day(s).
| Time | Temp. | Humidity | Pressure | Rain* | Wind** | Luminosity | Snow |
|---|---|---|---|---|---|---|---|
| 1777907069 | 16.11° C | 49% | 1011.6 hPa | 0 mm | - | 544 W/m² | - |
| 1777906767 | 16.11° C | 52% | 1011.7 hPa | 0 mm | - | 816 W/m² | - |
| 1777906468 | 16.11° C | 54% | 1011.8 hPa | 0 mm | - | 799 W/m² | - |
| 1777905903 | 15.56° C | 54% | 1011.8 hPa | 0 mm | - | 755 W/m² | - |
| 1777905568 | 15° C | 55% | 1011.8 hPa | 0 mm | - | 744 W/m² | - |
| 1777905269 | 14.44° C | 54% | 1011.9 hPa | 0 mm | - | 743 W/m² | - |
| 1777904969 | 13.89° C | 57% | 1011.9 hPa | 0 mm | - | 726 W/m² | - |
| 1777904669 | 13.89° C | 56% | 1011.9 hPa | 0 mm | - | 698 W/m² | - |
| 1777904369 | 13.89° C | 57% | 1012 hPa | 0 mm | - | 692 W/m² | - |
| 1777904068 | 13.89° C | 57% | 1012 hPa | 0 mm | - | 672 W/m² | - |
| 1777903769 | 13.33° C | 57% | 1012.1 hPa | 0 mm | - | 668 W/m² | - |
| 1777903471 | 13.33° C | 54% | 1012.1 hPa | 0 mm | - | 645 W/m² | - |
| 1777903169 | 13.33° C | 60% | 1012.2 hPa | 0 mm | - | 476 W/m² | - |
| 1777902578 | 12.78° C | 62% | 1012.2 hPa | 0 mm | - | 516 W/m² | - |
| 1777902269 | 12.22° C | 64% | 1012.3 hPa | 0 mm | - | 660 W/m² | - |
| 1777901969 | 12.22° C | 63% | 1012.3 hPa | 0 mm | - | 624 W/m² | - |
| 1777901667 | 11.67° C | 63% | 1012.4 hPa | 0 mm | - | 583 W/m² | - |
| 1777901367 | 11.11° C | 65% | 1012.4 hPa | 0 mm | - | 555 W/m² | - |
| 1777901067 | 10.56° C | 67% | 1012.4 hPa | 0 mm | - | 534 W/m² | - |
| 1777900767 | 10.56° C | 67% | 1012.4 hPa | 0 mm | - | 517 W/m² | - |
| 1777900469 | 10.56° C | 67% | 1012.4 hPa | 0 mm | - | 500 W/m² | - |
| 1777900169 | 10° C | 69% | 1012.5 hPa | 0 mm | - | 489 W/m² | - |
| 1777899867 | 10° C | 68% | 1012.5 hPa | 0 mm | - | 472 W/m² | - |
| 1777899569 | 10° C | 70% | 1012.6 hPa | 0 mm | - | 457 W/m² | - |
| 1777899269 | 10° C | 69% | 1012.6 hPa | 0 mm | - | 442 W/m² | - |
* Rain latest hour (hover to see other rain measurements)
** Current wind speed in m/s (hover to see current wind gust speed)